This is the latest recevied weather packets stored in our database for station/object IZ5MMH-4. If no packets are shown the sender has not sent any weather packets the latest 10 day(s).
| Time | Temp. | Humidity | Pressure | Rain* | Wind** | Luminosity | Snow |
|---|---|---|---|---|---|---|---|
| 1787862863 | 30.56° C | 94% | 1017.1 hPa | - | - | - | - |
| 1787862263 | 30.56° C | 94% | 1017 hPa | - | - | - | - |
| 1787861663 | 30.56° C | 95% | 1016.8 hPa | - | - | - | - |
| 1787861064 | 30.56° C | 97% | 1016.8 hPa | - | - | - | - |
| 1787860464 | 30.56° C | 98% | 1017.3 hPa | - | - | - | - |
| 1787859864 | 30.56° C | 96% | 1017.5 hPa | - | - | - | - |
| 1787859263 | 30.56° C | 96% | 1017.1 hPa | - | - | - | - |
| 1787858663 | 31.11° C | 93% | 1017.5 hPa | - | - | - | - |
| 1787858063 | 31.11° C | 93% | 1017.4 hPa | - | - | - | - |
| 1787857464 | 31.11° C | 92% | 1017.6 hPa | - | - | - | - |
| 1787856863 | 31.11° C | 93% | 1017.6 hPa | - | - | - | - |
| 1787856265 | 31.11° C | 93% | 1017.6 hPa | - | - | - | - |
| 1787855663 | 31.11° C | 91% | 1017.3 hPa | - | - | - | - |
| 1787855063 | 31.11° C | 88% | 1017 hPa | - | - | - | - |
| 1787854463 | 31.11° C | 88% | 1016.8 hPa | - | - | - | - |
| 1787853863 | 31.67° C | 87% | 1016.7 hPa | - | - | - | - |
| 1787853263 | 31.67° C | 89% | 1016.3 hPa | - | - | - | - |
| 1787852664 | 31.67° C | 89% | 1016.2 hPa | - | - | - | - |
| 1787852063 | 31.67° C | 89% | 1016.4 hPa | - | - | - | - |
| 1787851464 | 31.67° C | 87% | 1016.6 hPa | - | - | - | - |
| 1787850864 | 31.67° C | 89% | 1016.6 hPa | - | - | - | - |
| 1787850263 | 31.67° C | 88% | 1017.2 hPa | - | - | - | - |
| 1787849664 | 32.22° C | 87% | 1017.2 hPa | - | - | - | - |
| 1787849063 | 32.22° C | 87% | 1017.2 hPa | - | - | - | - |
| 1787848463 | 32.22° C | 86% | 1017.2 hPa | - | - | - | - |
* Rain since midnight (hover to see other rain measurements)
** Current wind speed in m/s (hover to see current wind gust speed)